Babi Dol, Poland

2:04 AM CET on February 28, 2017 (GMT +0100)
Rebiechowo

Weather History for EPGD - June, 2013

Change the Weather History Date:

Tuesday, June 4, 2013

  Actual Average Record
Temperature  
Mean Temperature 50 °F -  
Max Temperature 55 °F 66 °F 78 °F (2003)
Min Temperature 44 °F 49 °F 41 °F (2004)
Degree Days  
Heating Degree Days 14    
Moisture  
Dew Point 50 °F    
Average Humidity 91    
Maximum Humidity 100    
Minimum Humidity 76    
Precipitation  
Precipitation 0.00 in - - ()
Sea Level Pressure  
Sea Level Pressure 30.02 in    
Wind  
Wind Speed 12 mph ()    
Max Wind Speed 20 mph    
Max Gust Speed 33 mph    
Visibility 3.8 miles    
Events Fog    
Averages and records for this station are not official NWS values.
T = Trace of Precipitation, MM = Missing Value Source: Averaged Metar Reports

Daily Weather History Graph

Daily Weather History Graph

Search for Another Location

Airport or City:

Trip Planner

Search our weather history database for the weather conditions in past years. The results will help you decide how hot, cold, wet, or windy it might be!

Date:

Astronomy

Jun. 04, 2013 Rise Set
Actual Time 4:15 AM CEST 9:13 PM CEST
Civil Twilight 3:22 AM CEST 10:07 PM CEST
Nautical Twilight 1:47 AM CEST 11:44 PM CEST
Astronomical Twilight Sun does not rise Sun does not rise
Moon 2:13 AM CEST (6/4) 4:53 PM CEST (6/4)
Length of Visible Light 18h 44m
Length of Day
16h 57m
Waning Crescent, 16% of the Moon is Illuminated
Jun 4
Waning Crescent
Jun 8
New
Jun 16
First Quarter
Jun 23
Full
Jun 30
Last Quarter

Hourly Weather History & Observations

Time (CEST) Temp. Windchill Dew Point Humidity Pressure Visibility Wind Dir Wind Speed Gust Speed Precip Events Conditions
12:00 AM 55.4 °F - 53.6 °F 94% 29.98 in - NNW 9.2 mph - N/A   Clear
12:30 AM 55.4 °F - 53.6 °F 94% 29.98 in - NNW 10.4 mph - N/A   Clear
1:00 AM 55.4 °F - 53.6 °F 94% 29.98 in - NW 8.1 mph - N/A   Clear
1:30 AM 55.4 °F - 53.6 °F 94% 29.98 in - WNW 10.4 mph - N/A   Clear
2:00 AM 55.4 °F - 53.6 °F 94% 29.95 in - NNW 9.2 mph - N/A   Clear
2:30 AM 55.4 °F - 53.6 °F 94% 29.95 in 4.3 mi NW 10.4 mph - N/A   Scattered Clouds
3:00 AM 55.4 °F - 53.6 °F 94% 29.95 in 4.3 mi NW 9.2 mph - N/A   Mostly Cloudy
3:30 AM 55.4 °F - 55.4 °F 100% 29.95 in 3.1 mi NW 10.4 mph - N/A   Mostly Cloudy
4:00 AM 55.4 °F - 55.4 °F 100% 29.95 in 1.9 mi North 10.4 mph - N/A   Overcast
4:30 AM 55.4 °F - 53.6 °F 94% 29.98 in 0.4 mi North 15.0 mph - N/A Fog Fog
5:00 AM 53.6 °F - 53.6 °F 100% 29.98 in 0.2 mi NNW 11.5 mph - N/A Fog Fog
5:30 AM 53.6 °F - 53.6 °F 100% 29.98 in 0.2 mi North 11.5 mph - N/A Fog Fog
6:00 AM 53.6 °F - 53.6 °F 100% 29.98 in 0.4 mi NNW 12.7 mph - N/A Fog Fog
6:30 AM 53.6 °F - 53.6 °F 100% 29.98 in 0.6 mi NNW 12.7 mph - N/A Fog Fog
7:00 AM 53.6 °F - 53.6 °F 100% 29.98 in 0.4 mi NNW 13.8 mph - N/A Fog Fog
7:30 AM 53.6 °F - 53.6 °F 100% 29.98 in 0.4 mi North 12.7 mph - N/A Fog Fog
8:00 AM 53.6 °F - 51.8 °F 94% 29.98 in 0.4 mi North 15.0 mph - N/A Fog Light Drizzle
8:30 AM 53.6 °F - 53.6 °F 100% 29.98 in 0.4 mi North 13.8 mph - N/A Fog Light Drizzle
9:00 AM 53.6 °F - 53.6 °F 100% 29.98 in 0.2 mi North 13.8 mph - N/A Fog Fog
9:30 AM 53.6 °F - 53.6 °F 100% 30.01 in 0.6 mi North 16.1 mph - N/A Fog Fog
10:00 AM 53.6 °F - 51.8 °F 94% 30.01 in 0.9 mi North 17.3 mph - N/A   Light Drizzle
10:30 AM 53.6 °F - 51.8 °F 94% 30.01 in 1.6 mi North 13.8 mph - N/A   Overcast
11:00 AM 51.8 °F - 51.8 °F 100% 30.01 in 2.5 mi North 15.0 mph - N/A   Overcast
11:30 AM 51.8 °F - 51.8 °F 100% 30.01 in 1.9 mi North 13.8 mph - N/A   Overcast
12:00 PM 53.6 °F - 51.8 °F 94% 30.01 in 6.2 mi North 17.3 mph 33.4 mph N/A   Mostly Cloudy
12:30 PM 53.6 °F - 50.0 °F 88% 30.04 in 6.2 mi North 18.4 mph - N/A   Mostly Cloudy
1:00 PM 53.6 °F - 50.0 °F 88% 30.04 in 6.2 mi North 15.0 mph - N/A   Mostly Cloudy
1:30 PM 53.6 °F - 48.2 °F 82% 30.04 in 6.2 mi North 17.3 mph - N/A   Mostly Cloudy
2:00 PM 53.6 °F - 48.2 °F 82% 30.04 in 6.2 mi North 19.6 mph - N/A   Mostly Cloudy
2:30 PM 53.6 °F - 46.4 °F 77% 30.04 in 6.2 mi North 16.1 mph - N/A   Mostly Cloudy
3:00 PM 51.8 °F - 46.4 °F 82% 30.04 in 6.2 mi North 17.3 mph - N/A   Mostly Cloudy
3:30 PM 51.8 °F - 46.4 °F 82% 30.04 in 6.2 mi North 17.3 mph - N/A   Mostly Cloudy
4:00 PM 51.8 °F - 46.4 °F 82% 30.04 in 6.2 mi North 19.6 mph - N/A   Mostly Cloudy
4:30 PM 51.8 °F - 46.4 °F 82% 30.04 in 6.2 mi North 17.3 mph - N/A   Mostly Cloudy
5:00 PM 51.8 °F - 46.4 °F 82% 30.04 in 6.2 mi North 17.3 mph - N/A   Mostly Cloudy
5:30 PM 51.8 °F - 46.4 °F 82% 30.06 in 6.2 mi North 18.4 mph 29.9 mph N/A   Mostly Cloudy
6:00 PM 51.8 °F - 46.4 °F 82% 30.06 in 6.2 mi North 16.1 mph 27.6 mph N/A   Mostly Cloudy
6:30 PM 51.8 °F - 46.4 °F 82% 30.06 in 6.2 mi North 15.0 mph - N/A   Mostly Cloudy
7:00 PM 50.0 °F - 46.4 °F 87% 30.06 in 6.2 mi North 18.4 mph - N/A   Mostly Cloudy
7:30 PM 51.8 °F - 44.6 °F 76% 30.06 in 6.2 mi North 18.4 mph - N/A   Scattered Clouds
8:00 PM 50.0 °F - 46.4 °F 87% 30.06 in 6.2 mi North 16.1 mph - N/A   Scattered Clouds
8:30 PM 50.0 °F - 44.6 °F 82% 30.06 in 6.2 mi North 13.8 mph - N/A   Partly Cloudy
9:00 PM 50.0 °F - 44.6 °F 82% 30.06 in 6.2 mi North 8.1 mph - N/A   Partly Cloudy
9:30 PM 48.2 °F - 42.8 °F 82% 30.09 in - North 9.2 mph - N/A   Clear
10:00 PM 48.2 °F - 44.6 °F 87% 30.09 in - North 6.9 mph - N/A   Clear
10:30 PM 48.2 °F - 44.6 °F 87% 30.09 in - North 6.9 mph - N/A   Clear
11:00 PM 46.4 °F 42.9 °F 44.6 °F 93% 30.09 in - NNW 6.9 mph - N/A   Clear
11:30 PM 44.6 °F 41.4 °F 42.8 °F 93% 30.09 in - NW 5.8 mph - N/A   Clear